GFSGBSN_925_rhum_000.txt.gz
RH
81 77 81 87 89 85 80 97 100 100 100 100 100 100 96 100 99 98 98 99 99 99 100 100 100 100 91 79 52 18 15 16 16 22 20 21 22 22 23 22 11 10 8 11 10 9 11
78 75 77 88 89 85 74 82 96 93 97 99 97 97 82 99 99 100 99 99 100 100 100 100 100 100 90 49 17 18 15 16 19 23 23 20 22 20 18 11 14 13 10 10 14 10 9
77 74 78 85 88 79 70 77 81 75 89 87 80 84 75 84 98 100 100 99 100 100 100 100 100 100 95 41 16 17 17 15 16 19 23 19 16 16 17 12 10 11 10 11 11 12 12
76 73 74 81 84 72 64 73 73 72 75 70 63 78 68 69 95 99 100 100 100 100 100 100 100 99 67 15 13 16 14 10 14 16 16 13 18 18 11 12 16 14 17 15 11 14 16
76 74 72 75 75 69 60 72 67 72 61 59 58 63 59 66 84 96 98 100 100 100 100 100 95 96 39 13 16 11 11 10 10 11 13 12 14 16 13 17 18 19 19 16 14 16 16
75 75 72 69 72 67 63 67 68 69 54 59 50 57 59 64 86 100 100 98 97 99 98 100 90 63 26 16 14 11 10 10 13 14 15 18 22 20 23 16 20 16 17 17 17 17 44
74 76 74 68 70 63 60 64 67 60 52 52 50 58 60 65 96 97 97 94 83 77 98 31 27 27 27 18 13 11 10 12 16 20 21 23 25 23 18 17 14 16 17 18 20 25 48
73 77 75 67 71 60 60 64 67 60 55 51 51 58 62 84 98 97 98 96 40 38 48 54 46 37 28 22 15 13 15 16 18 22 20 25 24 19 25 26 25 26 29 34 32 34 47
75 78 75 65 70 58 60 64 65 57 54 50 49 55 60 98 95 98 94 51 42 44 44 24 36 30 19 18 16 16 17 20 19 21 24 26 20 22 26 30 31 34 28 28 39 42 42
83 78 74 65 68 56 60 64 65 56 53 47 44 52 66 98 82 65 63 29 53 44 38 26 17 15 16 18 19 16 16 19 24 27 27 30 28 26 28 29 31 31 28 33 45 44 51
94 80 70 67 66 56 58 66 63 53 51 46 44 53 62 53 66 80 47 53 52 33 50 21 18 14 15 20 16 17 22 20 23 26 27 30 28 30 29 26 28 32 30 32 31 38 39
98 81 69 66 60 57 56 66 60 52 48 46 42 57 73 84 71 47 57 47 32 66 47 22 19 18 20 22 23 22 26 27 24 33 32 31 26 27 26 28 26 29 38 45 51 52 60
100 83 70 67 56 58 55 66 58 51 46 45 41 61 69 61 63 60 45 35 58 71 27 25 24 20 23 31 32 30 33 37 33 37 41 32 31 28 26 29 29 39 44 64 58 69 71
100 86 71 69 54 56 59 65 57 51 46 43 42 64 57 56 60 50 26 41 46 42 35 22 26 25 28 30 33 34 33 38 34 38 47 43 45 28 25 27 31 33 43 65 57 79 61
99 84 70 65 55 52 63 64 57 51 46 43 46 78 67 48 51 40 51 68 58 49 26 28 28 30 32 30 33 37 37 37 36 34 41 43 36 27 25 26 30 34 44 40 69 67 67
97 79 71 59 54 51 66 63 55 52 46 40 59 68 58 54 39 31 67 66 58 48 31 26 31 32 36 33 36 40 39 40 37 38 35 39 35 30 25 29 31 30 37 43 66 54 64
96 73 68 57 50 53 66 59 53 54 44 43 62 47 43 55 24 50 60 62 57 46 34 24 32 36 34 34 40 44 43 43 44 41 37 36 39 37 31 36 37 38 40 55 58 69 68
94 72 58 53 47 59 62 58 51 52 49 71 49 46 71 35 46 77 52 57 50 31 28 34 34 30 35 44 51 51 49 46 50 47 35 41 53 62 34 32 36 32 36 41 57 44 85
82 68 55 46 52 59 60 57 54 52 49 61 68 88 66 28 59 82 48 47 43 30 31 32 36 38 45 56 57 57 56 47 38 42 43 42 56 70 50 37 34 33 46 55 59 72 70
75 58 49 50 54 56 57 56 58 48 48 44 79 88 79 72 62 43 37 37 41 34 34 33 41 42 50 58 63 64 59 49 39 47 69 52 57 49 57 42 43 34 44 47 45 69 63
62 56 51 51 53 54 54 60 56 47 50 53 72 75 71 88 80 50 38 42 42 38 33 35 37 39 48 56 59 64 58 48 46 56 66 48 51 50 58 60 44 34 35 54 47 46 51
60 57 52 48 49 52 54 61 56 51 58 56 84 69 63 65 72 66 64 50 47 39 39 36 39 48 43 57 47 64 56 46 38 65 67 62 69 57 62 70 66 46 41 45 50 46 58
60 54 48 47 48 52 55 62 57 52 57 59 73 64 59 84 72 74 78 55 50 44 48 48 45 55 51 55 62 71 69 70 62 63 74 69 87 56 43 74 60 50 46 49 46 47 52
57 52 49 49 50 53 57 59 55 52 49 40 58 69 78 84 75 68 58 53 51 45 48 55 51 55 57 65 57 54 64 78 79 88 71 93 86 79 73 68 44 35 41 46 47 53 63
58 53 53 54 52 56 63 56 52 49 46 52 54 60 75 89 65 52 61 71 70 73 71 70 74 64 59 53 73 62 75 62 74 90 80 70 85 94 68 73 45 30 62 64 57 49 72
58 59 54 55 57 62 64 57 48 44 45 48 51 53 70 87 79 54 68 63 80 76 76 72 73 62 61 86 75 72 68 54 62 76 79 80 81 70 89 52 41 36 43 48 42 69 72
60 59 54 56 62 62 62 60 48 44 41 44 56 57 60 83 73 61 68 68 71 75 87 74 65 61 57 88 88 76 63 60 66 85 92 98 98 76 100 74 63 45 47 44 63 57 79
63 59 55 58 57 55 57 58 58 45 41 40 58 62 57 88 77 67 59 71 74 73 81 76 73 78 86 73 78 87 92 84 76 68 87 90 92 98 97 88 53 49 48 59 59 56 72
66 59 55 52 49 50 48 52 58 51 43 33 59 58 58 78 74 65 64 62 56 50 82 77 63 73 80 86 91 97 96 94 89 76 69 70 64 75 67 68 49 50 54 51 57 56 72

GFSGBSN_925_rhum_003.txt.gz
RH
79 74 82 78 80 86 88 88 79 93 99 100 98 100 100 100 100 98 98 98 98 98 98 98 97 100 95 82 54 19 16 12 16 21 19 20 22 23 25 22 13 13 10 12 9 11 17
85 76 83 78 77 80 88 88 78 86 100 100 100 100 100 100 100 98 100 100 98 98 97 97 99 99 96 52 18 20 20 19 18 23 22 19 18 19 20 15 14 12 11 12 11 10 10
83 77 81 78 75 76 85 88 74 76 92 100 98 100 91 100 100 100 100 99 98 98 98 99 99 99 95 45 19 20 19 20 19 19 24 20 17 18 18 12 11 12 11 12 14 14 15
91 79 78 78 73 75 76 85 66 71 84 90 98 100 90 97 100 100 99 98 98 97 98 99 98 99 74 16 17 17 17 18 20 22 20 15 18 17 13 14 16 13 16 14 12 15 17
99 82 76 77 73 72 72 75 61 69 75 76 98 96 81 80 100 99 99 98 98 98 98 98 97 98 54 16 19 13 12 10 13 18 20 19 16 18 14 17 17 19 16 17 16 26 17
100 95 76 76 73 71 69 68 60 67 70 67 97 79 74 88 99 99 99 99 99 98 99 99 99 78 35 19 19 11 10 10 14 17 20 18 19 19 17 14 18 17 17 17 17 23 32
97 99 80 76 73 71 67 67 60 66 68 68 91 85 77 99 98 99 90 98 86 83 98 46 40 34 26 20 13 11 11 13 16 21 21 23 18 19 18 16 14 16 17 18 20 33 42
79 100 94 77 74 72 66 66 58 65 66 73 82 90 72 99 100 100 96 97 47 38 50 70 55 45 33 23 14 13 15 16 19 22 21 22 24 21 27 26 25 26 28 34 34 35 39
66 92 99 82 76 71 65 64 58 65 67 75 78 68 88 100 99 94 98 80 45 52 49 29 47 33 20 22 16 16 18 20 20 23 24 26 22 25 27 29 31 32 31 35 34 36 35
65 67 100 93 78 73 64 62 58 64 69 76 69 56 98 100 78 84 84 35 45 54 39 26 20 16 18 18 20 20 21 20 24 26 30 30 28 25 27 30 29 34 32 37 39 36 36
82 62 95 99 81 75 63 60 58 63 70 77 62 59 99 72 84 88 53 70 64 32 54 24 18 15 20 18 18 20 23 21 27 28 27 31 28 28 30 28 30 35 37 33 32 32 32
86 69 69 100 90 76 65 58 57 63 71 72 62 61 100 94 87 48 57 63 37 63 51 22 20 20 25 29 30 27 25 26 27 33 31 32 27 28 27 32 31 38 37 40 43 40 43
78 76 65 100 94 78 67 59 58 63 71 65 62 58 99 74 73 78 69 37 59 62 29 25 24 22 28 34 33 32 35 38 32 39 41 31 31 28 27 31 30 34 38 48 49 54 47
78 75 71 99 97 81 68 58 58 66 72 69 65 77 97 51 55 66 37 42 39 39 38 23 26 26 31 32 35 34 34 37 35 37 41 34 37 27 28 29 32 36 37 53 57 60 45
78 84 82 95 98 82 71 56 57 69 72 80 83 100 97 46 50 63 51 68 46 44 28 30 28 32 35 32 34 38 38 37 36 35 38 41 36 27 28 28 29 33 36 40 58 60 53
68 94 84 92 100 82 71 57 57 72 69 81 77 91 70 63 74 42 64 52 43 44 34 28 30 32 38 36 38 39 38 40 37 40 36 39 36 31 28 30 33 31 35 39 47 56 54
69 94 88 98 100 80 66 58 62 69 69 74 76 76 49 72 45 55 64 48 50 48 38 29 34 37 36 38 42 43 43 44 44 40 36 34 40 38 33 34 34 35 38 50 45 53 42
70 92 86 100 100 74 62 54 68 69 81 97 66 56 73 42 52 70 56 51 48 44 32 36 30 34 38 42 48 50 48 44 50 46 40 41 51 51 34 33 36 32 36 38 44 39 62
87 91 86 100 97 72 55 54 70 70 81 88 62 83 63 31 61 77 48 43 43 35 31 33 40 39 47 56 52 56 55 47 39 41 45 43 51 56 39 30 32 35 42 45 52 62 62
93 80 80 100 87 64 50 58 65 64 63 58 81 87 81 67 56 46 40 38 35 38 36 36 45 46 55 58 62 66 61 49 43 55 73 50 51 46 46 36 40 41 47 44 40 52 51
87 84 96 99 73 58 54 57 60 62 60 73 73 74 75 88 63 44 32 39 41 40 35 34 41 41 52 60 60 66 60 49 53 61 63 45 48 51 57 56 46 34 44 45 37 40 46
95 93 100 82 62 54 58 55 59 65 72 82 72 73 68 71 64 46 44 52 46 40 40 36 44 48 45 57 48 66 57 49 44 64 59 58 61 56 62 62 57 48 39 43 49 47 42
85 96 89 62 56 56 56 57 60 65 73 71 82 58 58 83 78 59 69 53 49 45 49 48 45 53 50 56 61 65 64 66 60 61 66 61 77 53 48 63 50 49 47 42 47 44 43
99 94 65 56 57 54 55 56 64 62 61 50 60 62 73 79 78 62 64 52 50 49 47 57 52 52 65 62 58 53 62 72 66 70 64 77 65 64 64 66 46 31 44 40 41 41 42
92 66 58 53 52 52 54 60 64 56 56 62 54 57 69 88 66 55 64 68 70 73 72 71 77 67 64 57 70 61 74 67 78 72 63 60 72 77 70 56 41 26 41 55 54 37 46
66 57 52 54 52 53 56 62 60 56 53 59 56 43 66 78 70 49 70 66 78 78 77 80 70 58 59 78 75 72 69 56 53 74 74 67 73 65 72 50 46 34 33 51 42 53 43
57 56 67 64 57 59 60 57 56 54 52 54 56 44 57 73 73 64 66 68 70 75 84 76 64 64 57 77 82 72 60 61 52 70 90 93 92 71 77 69 56 40 44 46 49 44 57
67 74 72 69 67 64 60 54 52 50 50 51 61 58 53 85 80 69 64 71 73 73 79 76 72 76 81 79 82 77 82 74 66 62 84 71 80 82 83 73 57 43 49 57 53 53 56
70 69 68 66 62 60 61 53 48 47 49 48 68 72 57 77 78 68 68 62 58 53 76 81 64 73 74 83 82 92 97 97 82 69 71 67 63 67 61 62 47 45 57 50 55 52 53

GFSGBSN_925_rhum_006.txt.gz
RH
96 87 84 78 78 79 79 78 87 87 83 93 99 99 99 99 98 98 98 98 98 97 98 98 98 99 83 49 26 20 18 10 18 23 15 14 14 13 12 14 14 14 11 9 6 8 15
100 98 87 82 74 80 76 79 80 87 84 93 100 98 98 98 98 98 98 98 98 97 98 98 98 98 75 34 20 25 19 14 24 18 16 14 12 12 13 14 12 11 8 8 8 11 11
85 100 96 85 75 77 74 76 74 84 84 79 100 99 100 99 100 98 100 98 96 96 98 98 98 98 69 27 23 33 31 26 21 17 16 17 14 13 13 14 9 9 8 8 10 10 11
88 92 100 92 76 74 74 71 74 80 82 78 98 100 100 100 100 99 100 98 96 97 98 98 98 97 43 27 26 29 26 24 24 21 18 18 18 15 14 10 9 9 8 10 13 9 11
82 85 99 100 84 72 74 70 68 76 79 76 83 100 100 100 100 99 100 97 97 98 98 98 96 84 27 21 21 16 20 10 19 23 22 17 17 16 13 11 10 11 10 10 11 15 10
74 87 85 100 97 73 74 70 67 71 76 71 80 100 100 100 99 98 99 98 98 99 98 100 94 72 28 15 17 13 12 12 13 18 18 16 14 14 13 11 14 12 9 8 9 18 11
71 81 86 98 98 80 72 71 68 67 71 68 76 100 100 99 98 99 97 92 74 68 88 31 26 29 17 17 17 10 12 13 13 13 15 16 13 12 12 10 10 9 11 10 14 24 23
75 77 90 87 94 95 72 72 70 64 65 66 77 100 100 98 98 99 95 61 39 48 31 41 38 33 26 23 16 10 15 11 12 11 16 16 16 17 18 14 12 11 11 17 22 25 22
81 70 81 82 100 100 77 73 71 67 62 64 86 99 100 98 98 98 88 62 63 56 42 31 33 22 18 20 13 11 14 15 14 11 16 12 20 20 16 16 16 18 16 22 16 25 23
86 72 80 75 91 99 90 75 73 67 63 63 82 100 98 99 86 74 64 36 53 61 26 21 19 18 17 15 17 17 18 14 18 17 17 20 21 19 18 19 22 19 21 21 25 22 20
86 78 79 74 66 100 100 77 75 68 63 64 82 96 98 75 77 61 59 77 75 50 37 18 16 15 16 16 17 19 20 16 16 20 22 25 21 20 19 23 24 25 24 23 22 21 23
82 83 83 67 61 85 100 88 78 70 64 64 84 86 99 98 97 67 69 73 50 45 34 20 16 18 19 20 20 20 19 18 19 21 20 22 20 20 22 25 23 26 25 25 24 24 29
88 83 77 80 76 68 100 97 82 72 66 64 81 83 99 93 51 74 90 50 37 37 23 21 19 18 19 22 24 22 22 22 19 25 25 22 23 21 21 26 26 25 24 28 28 32 32
80 82 74 84 73 67 94 100 85 74 68 66 79 98 99 95 82 74 57 31 32 22 22 19 19 20 22 22 26 25 25 24 25 22 22 21 30 22 23 22 22 25 23 25 33 38 22
74 78 79 72 65 72 84 100 88 77 73 77 94 99 100 90 73 94 46 54 29 26 20 21 21 22 26 25 23 26 26 25 25 26 19 23 26 23 25 23 22 27 28 27 39 46 40
68 70 74 71 71 69 87 100 88 78 74 80 98 98 67 78 72 73 52 40 24 29 27 22 20 20 26 25 22 24 28 29 29 29 28 26 30 25 25 23 26 24 24 32 34 45 39
68 65 70 73 76 75 90 100 86 76 70 73 75 58 75 79 79 47 48 31 29 33 32 24 20 24 22 28 24 22 24 31 30 28 25 22 26 31 28 26 24 28 26 28 28 38 29
67 67 62 71 89 78 94 100 86 73 78 94 58 55 82 76 51 34 34 28 36 33 32 28 24 23 24 28 28 27 26 28 37 28 29 28 30 40 28 27 27 24 23 20 24 29 42
76 65 60 68 90 87 96 100 86 78 93 93 51 53 71 54 52 61 36 29 34 30 27 31 28 28 34 33 38 36 35 41 38 34 32 31 34 40 34 30 27 27 26 23 31 40 38
71 73 71 80 87 90 99 100 83 75 70 63 44 68 62 39 32 30 31 29 26 34 30 31 37 37 39 40 43 46 45 42 41 39 61 33 35 33 36 25 26 33 30 25 21 33 25
65 78 74 90 86 84 100 99 75 66 68 76 51 45 37 67 42 28 27 25 24 34 32 31 36 33 35 49 45 47 44 41 44 64 43 35 38 35 34 35 31 26 26 28 25 24 29
79 77 92 92 88 90 100 93 67 71 81 79 52 50 49 39 35 28 34 26 22 32 33 31 31 36 37 44 34 46 41 37 36 46 42 42 47 46 48 41 36 34 25 26 26 24 27
75 90 87 91 86 98 99 81 64 74 87 58 60 50 34 69 37 32 32 26 23 33 46 36 31 39 43 44 44 41 42 39 36 43 49 49 59 46 40 47 44 60 37 25 24 24 27
75 84 86 95 89 100 94 66 73 69 65 44 55 41 44 64 48 35 28 25 36 34 41 45 39 40 55 43 40 40 43 43 40 46 42 60 50 55 59 58 79 20 28 27 24 22 21
84 91 88 99 100 99 74 64 69 64 60 59 65 43 43 99 46 38 30 26 41 47 54 51 57 50 44 45 51 53 65 75 66 48 43 41 49 70 85 42 29 14 23 28 32 19 22
94 91 98 100 94 70 60 64 62 62 56 67 71 46 38 67 58 31 32 40 52 52 62 68 59 50 45 58 64 65 58 44 52 57 54 46 51 46 64 86 85 26 27 38 34 29 28
100 100 99 91 66 58 58 60 60 64 54 69 68 43 32 34 41 42 37 46 45 51 58 62 60 63 48 69 100 73 54 45 43 59 91 75 80 81 63 82 41 26 32 36 37 30 32
97 87 74 58 52 54 57 61 65 62 50 69 78 52 53 48 55 51 45 51 55 49 61 59 55 60 63 85 88 65 84 54 46 43 58 56 68 86 71 91 76 28 40 48 34 40 38
71 61 55 53 58 62 64 65 64 57 51 63 71 62 54 56 62 69 69 68 54 37 47 54 48 51 50 65 80 83 94 93 70 60 51 53 48 48 44 38 33 32 34 33 39 41 38

GFSGBSN_925_rhum_009.txt.gz
RH
96 98 100 90 86 82 74 77 76 77 82 86 86 94 98 98 98 98 100 98 98 98 97 96 97 95 75 44 26 22 12 12 19 28 16 11 12 11 11 10 9 11 10 9 7 7 12
95 91 96 100 93 84 77 76 74 77 77 84 85 90 99 99 98 99 99 98 98 97 96 96 96 85 65 37 16 26 28 23 20 19 13 11 11 9 10 10 11 10 10 7 9 11 14
88 92 87 98 100 91 84 76 75 75 75 81 79 89 98 98 98 100 98 98 98 95 96 98 94 80 50 27 18 24 24 18 16 14 10 10 10 11 12 14 10 8 8 8 13 12 14
81 79 88 85 100 100 90 77 76 73 74 77 74 75 99 99 98 99 98 98 99 98 94 94 96 74 38 20 19 18 22 21 19 16 14 14 15 15 14 10 10 9 9 16 15 10 8
80 79 74 88 87 100 99 81 77 73 74 74 71 75 97 100 100 99 98 98 97 96 94 96 87 64 28 20 17 14 15 15 15 16 17 16 16 17 14 13 11 9 12 13 14 7 5
87 84 72 75 87 95 100 92 77 74 73 73 70 75 86 98 99 98 98 97 90 89 89 84 68 64 25 12 13 11 13 11 13 17 17 16 16 18 15 11 15 13 10 10 9 8 6
83 79 84 77 77 85 99 100 80 76 72 70 70 74 90 98 99 99 95 77 61 60 57 30 23 20 14 13 14 10 10 10 13 16 15 16 16 16 13 11 11 10 8 8 8 8 8
82 84 82 78 80 88 89 100 92 78 74 69 70 72 96 98 98 98 92 44 34 46 38 24 23 21 19 16 16 9 10 10 12 13 13 16 20 15 11 10 9 9 10 11 11 12 16
90 80 84 73 66 86 89 100 99 80 76 70 72 77 100 99 98 99 70 45 47 51 45 23 20 19 14 16 12 9 9 9 12 14 13 15 14 14 13 11 10 10 10 15 15 16 15
89 88 78 72 71 77 83 99 100 86 78 71 73 79 100 99 89 61 53 40 41 47 40 20 19 16 14 13 13 12 10 11 12 12 16 18 15 14 11 11 13 14 14 14 14 18 18
85 89 84 77 72 73 74 93 100 95 81 74 75 81 99 78 76 47 50 55 50 61 45 15 14 13 12 14 13 14 14 10 14 13 14 17 17 13 12 16 16 32 16 16 16 18 16
81 88 88 80 70 72 78 70 100 99 86 76 76 88 100 100 88 65 65 75 64 58 38 18 14 16 17 13 13 14 11 11 12 14 12 17 15 14 16 18 17 18 19 17 15 16 25
95 83 92 87 65 69 83 65 73 100 90 79 76 90 99 86 48 64 79 63 54 44 17 16 15 14 16 15 16 15 14 14 13 22 19 16 15 18 16 18 18 17 19 22 23 28 26
90 95 90 87 77 66 74 70 62 100 94 83 78 100 98 79 65 84 75 60 46 22 19 13 12 14 17 14 15 17 14 14 11 14 17 18 27 18 16 16 16 18 15 23 28 26 18
82 93 97 87 86 78 69 78 68 98 97 89 99 100 100 95 92 86 58 66 37 15 14 16 14 17 18 16 15 19 18 14 12 13 19 18 20 18 18 17 15 16 24 17 24 28 30
77 99 92 90 81 85 71 74 75 99 98 90 86 95 70 80 92 79 56 47 24 17 15 14 18 16 20 18 17 19 18 16 19 19 18 16 21 18 21 19 20 21 16 25 21 31 34
85 82 89 90 78 71 78 75 83 100 97 76 67 59 36 73 80 55 56 38 20 20 19 17 16 16 16 18 16 18 18 21 20 20 16 14 18 26 23 23 16 23 20 20 22 29 35
81 82 99 86 78 73 82 80 84 100 92 82 64 59 81 81 52 50 47 28 19 22 24 19 20 15 18 17 19 17 16 16 20 19 18 16 21 37 24 21 20 20 20 20 30 26 30
90 84 95 93 72 70 81 87 90 99 88 76 62 54 89 66 62 69 33 22 20 24 23 23 19 16 15 18 21 18 17 36 32 26 20 24 24 36 29 25 21 19 18 18 17 31 25
93 82 76 87 72 58 73 91 92 99 83 67 44 58 76 75 40 37 33 25 27 24 21 20 17 19 24 24 22 26 26 35 34 27 45 32 22 26 34 24 20 26 18 18 20 30 26
87 99 87 73 66 59 70 97 94 99 77 74 43 40 41 74 50 35 28 24 22 27 24 24 26 22 22 26 28 30 30 37 37 58 32 30 33 25 24 24 20 18 18 18 18 18 24
87 76 73 73 76 68 80 95 99 98 72 80 47 35 34 44 39 34 34 23 22 22 25 28 24 20 20 25 27 26 30 33 34 37 35 33 37 37 44 27 26 24 19 15 16 17 14
79 70 71 75 73 77 83 90 100 97 76 68 47 47 35 54 42 34 31 22 20 22 35 23 20 25 25 31 35 33 31 28 27 37 40 40 51 46 36 38 36 58 37 22 16 15 16
76 71 71 76 76 91 83 82 100 96 75 51 45 34 52 58 41 33 24 21 19 22 31 30 25 26 43 32 31 31 31 31 31 37 35 58 47 48 46 64 79 18 18 16 19 16 14
81 75 78 78 97 92 77 85 100 96 69 58 50 41 42 98 34 27 23 19 20 30 35 37 44 37 33 33 43 51 56 66 47 32 32 33 44 57 82 37 23 16 15 19 21 18 16
70 81 85 86 90 83 83 92 100 87 62 93 72 50 33 51 40 22 23 20 38 41 54 59 45 38 41 47 56 48 48 36 48 48 36 36 47 42 50 80 84 30 23 27 24 22 19
77 82 90 89 94 93 87 99 97 71 64 90 60 50 26 29 23 23 26 26 22 32 42 56 56 55 44 67 94 53 45 34 41 51 87 65 71 74 56 72 42 21 23 26 30 33 25
80 81 92 97 85 88 98 98 88 64 65 90 62 66 28 26 35 27 20 26 25 28 58 50 51 54 57 74 81 52 74 48 42 34 50 50 62 80 64 90 77 20 28 38 36 27 25
73 97 95 78 97 100 99 90 67 62 62 69 58 67 50 28 54 53 55 55 30 26 31 48 31 45 45 47 68 72 90 93 56 58 38 48 39 44 37 36 28 23 23 22 27 30 29

GFSGBSN_925_rhum_012.txt.gz
RH
89 92 94 97 100 99 88 83 77 78 76 76 84 81 80 90 98 99 100 99 100 95 98 97 95 65 75 47 32 20 9 14 13 26 19 12 10 10 13 11 9 10 10 9 10 14 15
80 89 94 93 92 100 100 91 84 76 77 80 79 81 78 82 98 99 99 99 99 96 97 93 92 63 76 39 16 26 14 13 17 19 15 10 10 9 10 9 9 9 10 8 8 10 19
86 78 83 90 90 88 100 100 91 80 79 79 78 81 75 74 98 96 99 99 98 98 96 92 83 80 50 30 17 23 21 17 17 17 12 10 10 10 11 14 9 10 12 9 12 12 15
79 81 78 74 82 89 92 100 100 89 81 78 75 79 76 75 90 88 94 100 98 98 97 92 64 76 48 20 20 17 20 18 18 15 14 12 14 14 14 14 11 11 10 14 16 14 12
80 78 80 79 69 74 87 97 100 98 82 80 77 75 76 82 91 89 94 93 94 92 90 79 81 63 35 19 17 14 14 15 13 16 14 14 14 17 17 20 14 13 15 24 19 14 8
92 82 84 78 81 68 74 86 100 100 86 83 77 75 76 84 92 85 94 91 89 80 81 72 57 53 36 16 11 11 12 13 13 15 17 17 17 20 19 16 18 18 15 17 15 11 6
91 88 82 77 76 76 76 76 89 100 95 83 78 77 78 85 94 94 88 79 63 70 59 28 24 24 12 10 12 12 9 10 12 16 21 17 20 22 16 17 16 14 13 12 10 7 7
84 85 88 84 76 75 65 79 87 99 100 84 78 79 79 92 99 98 94 53 36 46 51 31 16 20 16 16 15 10 9 11 15 18 14 17 22 16 16 14 15 13 13 10 8 8 9
83 85 85 88 83 74 67 71 93 94 100 90 80 79 78 99 98 98 76 48 40 41 46 25 13 15 15 13 14 10 9 10 13 14 15 30 26 13 14 16 15 12 13 15 12 9 9
88 87 86 84 88 76 72 61 84 92 97 97 82 82 83 95 89 68 60 47 28 46 50 25 18 16 14 13 14 8 8 9 11 16 15 38 24 16 15 13 11 23 20 14 18 27 18
86 91 90 82 88 83 73 64 71 88 100 99 84 83 79 70 77 49 54 44 46 61 57 18 16 12 12 13 11 10 9 11 14 14 20 20 16 16 15 16 15 23 21 18 13 17 22
82 94 89 83 84 92 67 68 67 82 99 100 87 83 84 99 96 66 61 70 67 73 55 18 14 16 14 13 11 10 12 10 10 14 16 24 17 16 19 14 14 17 18 19 13 16 47
72 83 94 88 82 83 77 64 64 76 85 100 89 86 85 83 55 53 59 78 73 52 17 18 17 14 15 15 13 13 15 13 15 20 21 19 16 14 13 13 14 14 18 26 38 47 40
84 79 88 92 85 75 84 65 62 79 77 100 92 91 93 86 68 69 76 94 58 27 21 10 12 14 17 13 14 13 13 14 12 13 17 21 23 15 12 12 25 18 14 33 78 79 43
80 84 90 95 94 78 82 70 63 78 76 92 98 100 99 95 76 83 88 93 48 22 16 14 12 16 16 13 13 15 14 13 11 11 20 44 33 18 14 12 14 12 18 14 23 52 39
78 82 88 90 91 94 81 76 70 70 80 99 95 96 77 87 82 83 92 70 36 20 13 13 15 14 17 16 15 16 17 12 11 11 16 61 68 33 17 16 15 19 14 26 26 39 38
82 84 95 91 95 97 87 84 78 71 90 98 74 67 43 78 90 75 85 54 38 19 14 16 14 14 14 17 14 16 16 13 14 15 14 17 40 23 21 21 15 20 20 18 17 34 56
82 95 96 86 81 90 95 86 81 78 92 100 63 67 67 86 71 45 65 41 31 20 15 18 15 13 14 16 16 15 25 20 15 14 19 14 19 46 24 16 14 17 22 18 55 37 50
84 99 86 84 85 83 90 88 84 84 88 97 63 66 81 65 55 66 48 39 27 24 20 23 18 17 13 17 19 16 14 30 26 19 21 18 24 44 30 24 20 21 15 18 19 41 47
86 85 84 75 94 87 92 89 83 82 90 92 55 83 98 88 40 45 50 38 32 23 18 18 18 16 15 17 16 19 18 32 30 25 42 32 24 25 44 26 22 28 19 14 19 59 46
89 86 80 84 84 88 98 86 84 84 90 99 71 57 61 91 67 47 43 35 30 24 21 18 19 16 22 24 22 23 20 36 33 50 30 28 33 25 20 18 22 23 19 17 17 21 32
77 75 83 90 88 86 98 79 84 88 84 97 74 49 50 56 51 54 50 40 28 21 24 25 24 19 19 25 22 25 22 35 34 37 31 31 43 41 44 27 24 27 22 19 16 15 16
86 76 90 88 80 91 89 68 79 94 97 89 56 56 46 60 53 54 52 35 27 22 22 20 20 21 22 27 28 33 35 31 26 37 41 42 64 62 54 38 43 54 42 26 23 16 16
85 85 95 100 78 90 79 70 71 94 97 65 53 54 74 63 48 48 42 29 24 21 29 23 21 24 36 28 30 30 30 32 33 37 32 66 60 66 72 68 67 23 16 16 19 17 14
87 84 97 90 84 85 83 68 76 99 97 98 52 73 78 87 48 38 39 31 22 21 28 26 40 35 32 34 51 56 69 62 40 28 34 38 60 74 96 56 30 22 15 17 18 20 18
84 81 79 74 73 81 84 74 83 100 95 98 90 90 89 68 55 30 30 25 32 43 50 55 37 35 34 57 72 50 60 40 48 45 29 35 57 72 66 80 78 35 23 22 20 34 20
86 84 77 68 75 78 84 80 86 92 95 100 93 93 97 71 37 29 30 31 25 45 53 51 54 54 46 88 95 69 61 30 54 63 87 75 78 86 72 87 65 22 22 21 38 48 28
87 76 63 71 79 89 85 80 85 88 81 100 93 89 95 66 33 27 22 25 26 40 67 53 54 51 69 80 87 69 81 57 48 34 59 65 80 92 82 98 88 20 24 43 44 32 30
60 63 69 85 87 86 86 83 78 74 78 100 95 85 80 86 56 54 52 46 34 22 42 55 41 49 55 56 74 81 93 90 69 69 30 53 48 62 55 62 34 21 25 23 24 29 30

GFSGBSN_925_rhum_015.txt.gz
RH
87 86 88 88 91 97 100 98 96 90 83 78 76 74 78 82 78 90 99 99 100 98 88 86 89 79 63 72 53 23 10 18 23 19 25 24 25 20 16 14 15 13 12 12 27 28 37
84 73 69 80 94 92 94 90 97 100 91 81 78 76 74 79 75 83 88 91 94 89 89 90 89 72 88 61 25 22 10 13 13 24 22 20 16 12 14 15 16 11 12 9 10 20 26
85 86 81 73 72 83 88 86 88 99 99 88 80 76 74 75 72 75 75 66 83 89 93 93 87 85 69 51 22 25 19 11 16 14 20 17 14 20 20 21 19 13 12 10 16 27 27
83 79 77 78 76 61 76 82 82 88 100 96 84 78 74 73 70 78 70 65 85 84 83 84 82 91 77 19 20 19 21 18 16 17 16 15 15 19 19 20 22 14 14 17 17 18 26
87 86 79 76 75 75 57 73 77 88 98 100 87 80 77 74 70 78 66 70 85 76 72 70 84 87 64 28 21 15 17 21 18 18 16 16 15 20 23 27 31 18 25 26 19 15 18
88 92 88 81 74 74 77 55 77 86 98 100 95 80 77 73 72 70 64 72 80 71 73 78 76 69 50 25 18 15 13 14 14 18 19 19 20 27 28 31 34 22 28 25 24 16 16
89 88 88 90 84 76 72 73 64 77 85 99 99 83 77 73 72 76 74 74 82 86 76 61 41 39 18 16 13 13 12 13 15 20 28 24 28 33 25 22 19 18 16 23 20 16 13
86 87 85 88 87 83 68 61 53 72 79 96 99 88 78 74 79 91 92 84 49 47 68 51 41 30 22 20 18 15 11 16 22 29 23 24 29 21 17 19 21 22 24 22 14 9 9
83 89 87 87 84 85 82 67 66 58 92 91 98 90 80 77 80 94 84 65 28 46 70 44 38 31 18 18 21 18 13 14 18 24 19 28 22 23 19 21 21 21 25 21 18 12 14
82 84 86 87 84 86 84 74 72 60 91 95 99 93 82 76 84 76 83 49 28 47 85 41 35 16 14 17 22 13 11 14 15 19 28 28 21 24 24 23 19 28 21 25 19 24 28
72 80 86 85 86 84 80 79 70 68 76 98 100 96 84 63 87 79 64 64 44 56 91 27 21 14 16 21 16 15 10 12 16 20 20 26 28 30 29 22 18 22 19 22 23 25 36
86 78 74 82 88 82 84 77 76 72 66 90 98 99 88 97 94 58 55 66 69 80 90 30 21 22 22 20 17 13 13 12 13 17 17 23 19 23 24 17 18 18 20 22 27 32 57
96 87 74 85 84 82 81 71 83 70 66 86 94 100 90 79 76 74 61 77 96 97 28 24 23 21 22 21 19 17 18 20 23 26 32 23 20 26 25 21 20 23 31 48 46 69 65
82 83 85 67 72 89 85 72 82 73 66 82 92 100 93 76 58 76 81 98 98 46 38 16 21 22 24 20 20 19 22 25 20 20 30 35 43 26 18 17 26 24 29 59 54 85 63
72 92 90 78 71 79 88 84 65 77 68 80 91 100 99 83 59 82 96 98 74 48 24 25 18 24 23 19 17 21 21 22 16 19 29 41 37 34 27 24 22 21 32 30 67 69 83
90 85 93 91 85 86 84 90 67 77 68 86 100 99 95 87 63 93 97 80 63 35 28 21 29 21 27 23 21 22 24 18 17 15 37 56 52 46 35 31 20 21 21 38 54 69 55
84 85 94 87 76 81 74 94 80 83 70 91 98 98 72 81 83 95 89 72 56 38 31 28 25 22 21 24 25 23 23 18 17 26 41 53 53 56 43 35 27 27 27 23 31 56 61
86 87 88 86 82 67 67 94 80 80 76 96 94 93 69 88 96 83 87 65 50 39 35 35 20 21 22 23 24 25 27 36 30 22 34 47 57 76 50 25 20 20 24 35 63 36 72
84 86 84 86 83 84 76 89 90 75 82 97 96 82 90 58 75 89 56 55 52 46 42 30 27 23 22 27 42 23 35 32 32 28 27 32 34 60 42 35 31 23 21 20 40 62 51
80 83 82 81 86 85 94 88 97 78 83 94 91 86 95 94 57 58 57 53 60 44 43 32 27 29 27 28 31 30 47 36 34 39 41 38 35 43 57 41 32 32 27 23 31 67 54
85 84 80 73 79 100 94 92 96 91 89 94 96 70 71 95 91 71 50 48 54 55 38 31 30 30 30 24 24 27 48 46 38 47 32 39 41 30 34 36 29 26 29 29 22 35 45
86 83 83 86 100 96 91 83 91 90 90 97 95 63 88 79 70 79 55 55 50 43 38 34 36 29 27 28 34 30 40 46 45 43 37 38 61 43 42 39 42 38 35 32 31 25 22
88 88 90 75 87 88 85 86 96 97 97 94 77 72 62 78 75 74 54 54 44 39 35 24 33 33 33 37 38 44 46 52 45 52 50 52 68 69 58 49 45 53 37 33 32 29 26
90 89 86 87 88 90 90 83 90 99 96 87 70 72 86 83 71 58 47 48 44 42 45 29 31 38 42 44 47 49 50 64 68 75 53 65 66 77 76 67 51 39 24 20 27 26 27
90 86 84 86 85 88 92 86 87 93 98 90 82 81 87 99 64 51 52 48 46 40 38 46 42 41 47 49 75 62 78 44 56 48 62 67 78 84 72 79 49 33 25 27 24 32 30
86 88 86 88 91 83 92 86 85 80 92 90 91 97 99 97 71 42 47 45 62 53 70 63 62 55 48 91 77 62 79 53 62 44 53 49 69 72 82 80 64 51 28 24 23 52 37
90 85 85 86 89 87 91 98 89 73 88 100 91 96 99 96 69 45 47 52 48 66 85 82 76 57 65 99 97 76 73 48 74 73 73 86 81 80 94 88 74 44 27 22 43 54 34
86 89 98 98 98 88 93 90 83 85 77 100 94 94 100 99 85 56 39 50 49 71 83 74 86 72 92 86 87 86 95 70 69 64 71 74 92 97 98 99 83 31 28 36 59 39 38
85 73 80 82 87 78 80 80 76 76 81 97 94 93 98 98 94 68 55 33 38 50 70 70 70 67 81 86 96 98 99 96 74 75 48 74 73 82 73 81 58 24 32 39 36 36 32